Location: Unspecified
(0.0000°N, 0.0000°E)
Time: 12:12:00
(UTC+00:00)

Explorer 7 - Visible Passes

Search period start: 04 December 2016 00:00
Search period end: 14 December 2016 00:00
Orbit: 486 x 685 km, 50.3° (Epoch: 03 December)

Date Brightness Start Highest point End Pass type
(mag) Time Alt. Az. Time Alt. Az. Time Alt. Az.
06 Dec 9.2 19:56:10 10° SSW 19:57:02 15° S 19:57:02 15° S visible
07 Dec 9.0 20:01:55 10° SW 20:03:22 22° SW 20:03:22 22° SW visible
08 Dec 9.0 18:30:41 10° SE 18:31:22 10° SE 18:32:03 10° ESE visible
08 Dec 9.2 20:08:17 10° WSW 20:09:45 20° WSW 20:09:45 20° WSW visible
09 Dec 8.1 18:34:20 10° S 18:37:31 23° SE 18:39:45 14° E visible
09 Dec 9.7 20:15:31 10° W 20:16:10 12° W 20:16:10 12° W visible
10 Dec 6.9 18:39:44 10° SSW 18:43:36 54° SE 18:46:12 18° NE visible
11 Dec 7.1 18:45:46 10° SW 18:49:40 58° NW 18:52:42 15° NNE visible
12 Dec 9.7 05:09:15 10° NNE 05:11:38 14° NE 05:14:04 10° E visible
12 Dec 8.6 18:52:27 10° WSW 18:55:41 24° NW 18:58:49 10° N visible
13 Dec 8.9 05:13:46 10° N 05:17:41 28° NE 05:21:47 10° ESE visible
13 Dec 9.5 19:00:40 10° WNW 19:01:44 11° NW 19:02:47 10° NW visible
